Lompoc, CA

2:39 PM PDT on August 19, 2017 (GMT -0700)
Lompoc

Weather History for KLPC - February, 2014

Change the Weather History Date:

Thursday, February 20, 2014

  Actual Average Record
Temperature  
Mean Temperature 60 °F -  
Max Temperature 77 °F 66 °F 85 °F (1982)
Min Temperature 44 °F 43 °F 26 °F (1953)
Degree Days  
Heating Degree Days 4    
Growing Degree Days 10 (Base 50)    
Moisture  
Dew Point 35 °F    
Average Humidity 43    
Maximum Humidity 76    
Minimum Humidity 18    
Precipitation  
Precipitation 0.00 in - - ()
Sea Level Pressure  
Sea Level Pressure 30.04 in    
Wind  
Wind Speed 7 mph (West)    
Max Wind Speed 20 mph    
Max Gust Speed 24 mph    
Visibility 10 miles    
Events      
Averages and records for this station are not official NWS values.
T = Trace of Precipitation, MM = Missing Value Source: NWS Daily Summary

Daily Weather History Graph

Daily Weather History Graph

Search for Another Location

Airport or City:

Trip Planner

Search our weather history database for the weather conditions in past years. The results will help you decide how hot, cold, wet, or windy it might be!

Date:

Astronomy

Feb. 20, 2014 Rise Set
Actual Time 6:41 AM PST 5:49 PM PST
Civil Twilight 6:16 AM PST 6:15 PM PST
Nautical Twilight 5:46 AM PST 6:44 PM PST
Astronomical Twilight 5:17 AM PST 7:14 PM PST
Moon 11:33 PM PST (2/20) 9:42 AM PST (2/20)
Length of Visible Light 11h 59m
Length of Day
11h 08m
Waning Gibbous, 70% of the Moon is Illuminated
Feb 20
Waning Gibbous
Feb 22
Last Quarter
Mar 1
New
Mar 8
First Quarter
Mar 16
Full

Hourly Weather History & Observations

Time (PST) Temp. Windchill Dew Point Humidity Pressure Visibility Wind Dir Wind Speed Gust Speed Precip Events Conditions
12:15 AM 48.2 °F - 39.2 °F 71% 30.06 in 10.0 mi WNW 4.6 mph - N/A   Clear
12:35 AM 48.2 °F - 39.2 °F 71% 30.07 in 10.0 mi NW 4.6 mph - N/A   Clear
12:55 AM 53.6 °F - 37.4 °F 54% 30.06 in 10.0 mi North 6.9 mph - N/A   Clear
1:15 AM 53.6 °F - 35.6 °F 51% 30.06 in 10.0 mi WSW 3.5 mph - N/A   Clear
1:35 AM 50.0 °F - 37.4 °F 62% 30.07 in 10.0 mi West 5.8 mph - N/A   Clear
1:55 AM 53.6 °F - 30.2 °F 41% 30.06 in 10.0 mi North 6.9 mph - N/A   Clear
2:15 AM 57.2 °F - 26.6 °F 31% 30.06 in 10.0 mi North 10.4 mph - N/A   Clear
2:35 AM 57.2 °F - 26.6 °F 31% 30.05 in 10.0 mi NNE 5.8 mph - N/A   Clear
2:55 AM 57.2 °F - 26.6 °F 31% 30.05 in 10.0 mi NNE 9.2 mph - N/A   Clear
3:15 AM 57.2 °F - 26.6 °F 31% 30.04 in 10.0 mi North 10.4 mph - N/A   Clear
3:35 AM 57.2 °F - 26.6 °F 31% 30.05 in 10.0 mi North 6.9 mph - N/A   Clear
3:55 AM 57.2 °F - 26.6 °F 31% 30.05 in 10.0 mi North 8.1 mph - N/A   Clear
4:15 AM 57.2 °F - 24.8 °F 29% 30.05 in 10.0 mi North 11.5 mph - N/A   Clear
4:35 AM 57.2 °F - 24.8 °F 29% 30.04 in 10.0 mi NNE 9.2 mph - N/A   Clear
4:55 AM 57.2 °F - 24.8 °F 29% 30.05 in 10.0 mi SSW 4.6 mph - N/A   Clear
5:15 AM 57.2 °F - 24.8 °F 29% 30.05 in 10.0 mi SSW 3.5 mph - N/A   Clear
5:35 AM 55.4 °F - 26.6 °F 33% 30.05 in 10.0 mi WSW 6.9 mph - N/A   Clear
5:55 AM 57.2 °F - 26.6 °F 31% 30.05 in 10.0 mi SW 5.8 mph - N/A   Clear
6:15 AM 57.2 °F - 26.6 °F 31% 30.05 in 10.0 mi WSW 5.8 mph - N/A   Clear
6:35 AM 53.6 °F - 26.6 °F 35% 30.06 in 10.0 mi West 4.6 mph - N/A   Clear
6:55 AM 55.4 °F - 26.6 °F 33% 30.06 in 10.0 mi NW 8.1 mph - N/A   Clear
7:15 AM 55.4 °F - 26.6 °F 33% 30.06 in 10.0 mi Calm Calm - N/A   Clear
7:35 AM 57.2 °F - 28.4 °F 33% 30.07 in 10.0 mi North 4.6 mph - N/A   Clear
7:55 AM 60.8 °F - 28.4 °F 29% 30.07 in 10.0 mi SW 5.8 mph - N/A   Clear
8:15 AM 59.0 °F - 28.4 °F 31% 30.07 in 10.0 mi WSW 5.8 mph - N/A   Clear
8:35 AM 60.8 °F - 30.2 °F 31% 30.07 in 10.0 mi WSW 5.8 mph - N/A   Clear
8:55 AM 62.6 °F - 30.2 °F 30% 30.07 in 10.0 mi SW 6.9 mph - N/A   Clear
9:15 AM 64.4 °F - 30.2 °F 28% 30.07 in 10.0 mi SW 6.9 mph - N/A   Clear
9:35 AM 66.2 °F - 30.2 °F 26% 30.07 in 10.0 mi WSW 6.9 mph - N/A   Clear
9:55 AM 69.8 °F - 30.2 °F 23% 30.07 in 10.0 mi West 5.8 mph - N/A   Clear
10:15 AM 69.8 °F - 30.2 °F 23% 30.07 in 10.0 mi SSW 3.5 mph - N/A   Clear
10:35 AM 73.4 °F - 30.2 °F 20% 30.07 in 10.0 mi Calm Calm - N/A   Clear
10:55 AM 75.2 °F - 30.2 °F 19% 30.07 in 10.0 mi WNW 5.8 mph - N/A   Clear
11:15 AM 75.2 °F - 30.2 °F 19% 30.06 in 10.0 mi NW 6.9 mph - N/A   Clear
11:35 AM 77.0 °F - 30.2 °F 18% 30.05 in 10.0 mi WNW 6.9 mph - N/A   Clear
11:55 AM 73.4 °F - 37.4 °F 27% 30.05 in 10.0 mi SW 11.5 mph 17.3 mph N/A   Clear
12:15 PM 71.6 °F - 35.6 °F 27% 30.04 in 10.0 mi SW 13.8 mph 18.4 mph N/A   Clear
12:35 PM 71.6 °F - 35.6 °F 27% 30.04 in 10.0 mi WSW 12.7 mph 19.6 mph N/A   Clear
12:55 PM 71.6 °F - 39.2 °F 31% 30.03 in 10.0 mi SW 15.0 mph - N/A   Clear
1:15 PM 71.6 °F - 35.6 °F 27% 30.02 in 10.0 mi WSW 16.1 mph - N/A   Clear
1:35 PM 71.6 °F - 37.4 °F 29% 30.02 in 10.0 mi SW 15.0 mph 19.6 mph N/A   Clear
1:55 PM 71.6 °F - 39.2 °F 31% 30.01 in 10.0 mi SW 13.8 mph 18.4 mph N/A   Clear
2:15 PM 73.4 °F - 37.4 °F 27% 30.00 in 10.0 mi WSW 13.8 mph 19.6 mph N/A   Clear
2:35 PM 73.4 °F - 37.4 °F 27% 30.00 in 10.0 mi WSW 16.1 mph 20.7 mph N/A   Clear
2:55 PM 69.8 °F - 39.2 °F 33% 30.01 in 10.0 mi WSW 19.6 mph 24.2 mph N/A   Clear
3:15 PM 68.0 °F - 41.0 °F 37% 30.01 in 10.0 mi WSW 16.1 mph 21.9 mph N/A   Clear
3:35 PM 66.2 °F - 41.0 °F 40% 30.02 in 10.0 mi WSW 15.0 mph 21.9 mph N/A   Clear
3:55 PM 64.4 °F - 41.0 °F 42% 30.01 in 10.0 mi WSW 15.0 mph 19.6 mph N/A   Clear
4:15 PM 62.6 °F - 44.6 °F 52% 30.01 in 10.0 mi WSW 10.4 mph - N/A   Clear
4:35 PM 64.4 °F - 42.8 °F 45% 30.01 in 10.0 mi WSW 13.8 mph - N/A   Clear
4:55 PM 64.4 °F - 42.8 °F 45% 30.01 in 10.0 mi WSW 10.4 mph - N/A   Clear
5:15 PM 62.6 °F - 42.8 °F 48% 30.01 in 10.0 mi WSW 11.5 mph - N/A   Clear
5:35 PM 60.8 °F - 42.8 °F 52% 30.01 in 10.0 mi WSW 10.4 mph - N/A   Clear
5:55 PM 59.0 °F - 42.8 °F 55% 30.01 in 10.0 mi WSW 8.1 mph - N/A   Clear
6:15 PM 57.2 °F - 42.8 °F 59% 30.02 in 10.0 mi West 6.9 mph - N/A   Clear
6:35 PM 57.2 °F - 42.8 °F 59% 30.02 in 10.0 mi West 4.6 mph - N/A   Clear
6:55 PM 55.4 °F - 42.8 °F 63% 30.02 in 10.0 mi Calm Calm - N/A   Clear
7:15 PM 55.4 °F - 42.8 °F 63% 30.03 in 10.0 mi WNW 6.9 mph - N/A   Clear
7:35 PM 55.4 °F - 42.8 °F 63% 30.03 in 10.0 mi WNW 3.5 mph - N/A   Clear
7:55 PM 53.6 °F - 42.8 °F 67% 30.03 in 10.0 mi Calm Calm - N/A   Clear
8:15 PM 51.8 °F - 41.0 °F 67% 30.02 in 10.0 mi East 4.6 mph - N/A   Clear
8:35 PM 51.8 °F - 39.2 °F 62% 30.02 in 10.0 mi East 4.6 mph - N/A   Clear
8:55 PM 50.0 °F - 39.2 °F 66% 30.02 in 10.0 mi East 4.6 mph - N/A   Clear
9:15 PM 48.2 °F - 39.2 °F 71% 30.03 in 10.0 mi ENE 4.6 mph - N/A   Clear
9:35 PM 48.2 °F - 39.2 °F 71% 30.03 in 10.0 mi East 5.8 mph - N/A   Clear
9:55 PM 48.2 °F - 39.2 °F 71% 30.02 in 10.0 mi East 6.9 mph - N/A   Clear
10:15 PM 48.2 °F - 39.2 °F 71% 30.03 in 10.0 mi NE 4.6 mph - N/A   Clear
10:35 PM 48.2 °F - 39.2 °F 71% 30.03 in 10.0 mi Calm Calm - N/A   Clear
10:55 PM 48.2 °F - 39.2 °F 71% 30.03 in 10.0 mi Calm Calm - N/A   Clear
11:15 PM 46.4 °F - 37.4 °F 71% 30.03 in 10.0 mi Calm Calm - N/A   Clear
11:35 PM 44.6 °F 42.2 °F 37.4 °F 76% 30.04 in 10.0 mi East 4.6 mph - N/A   Clear
11:55 PM 44.6 °F 43.1 °F 37.4 °F 76% 30.03 in 10.0 mi ENE 3.5 mph - N/A   Clear